Weather History for Alicante, Spain

Change the Weather History Date:

Tuesday, January 1, 2013

  Actual Average Record
Temperature  
Mean Temperature 52 °F -  
Max Temperature 63 °F 59 °F 69 °F (2007)
Min Temperature 42 °F 42 °F 35 °F (2000)
Degree Days  
Heating Degree Days 12    
Growing Degree Days 2 (Base 50)    
Moisture  
Dew Point 40 °F    
Average Humidity 62    
Maximum Humidity 87    
Minimum Humidity 33    
Precipitation  
Precipitation 0.00 in - - ()
Sea Level Pressure  
Sea Level Pressure 30.09 in    
Wind  
Wind Speed 10 mph ()    
Max Wind Speed 18 mph    
Max Gust Speed 28 mph    
Visibility 6.9 miles    
Events      
Averages and records for this station are not official NWS values.
T = Trace of Precipitation, MM = Missing Value Source: Averaged Metar Reports

Daily Weather History Graph

Daily Weather History Graph

Search for Another Location

Airport:

Trip Planner

Search our weather history database for the weather conditions in past years. The results will help you decide how hot, cold, wet, or windy it might be!

Date:

Astronomy

Jan. 01, 2013 Rise Set
Actual Time 8:19 AM CET 5:52 PM CET
Civil Twilight 7:49 AM CET 6:22 PM CET
Nautical Twilight 7:16 AM CET 6:55 PM CET
Astronomical Twilight 6:44 AM CET 7:27 PM CET
Moon 10:04 PM CET (1/1) 10:27 AM CET (1/1)
Length of Visible Light 10h 32m
Length of Day
9h 33m
Waning Gibbous, 85% of the Moon is Illuminated
Jan 1
Waning Gibbous
Jan 5
Last Quarter
Jan 11
New
Jan 19
First Quarter
Jan 27
Full

Hourly Weather History & Observations

Time (CET) Temp. Windchill Dew Point Humidity Pressure Visibility Wind Dir Wind Speed Gust Speed Precip Events Conditions
12:00 AM 42.8 °F 38.6 °F 37.4 °F 81% 30.15 in - WNW 6.9 mph - N/A   Clear
12:30 AM 44.6 °F 39.7 °F 37.4 °F 76% 30.15 in - WNW 9.2 mph - N/A   Clear
1:00 AM 45 °F - 35 °F 58% 30.15 in 9 mi West 9.2 mph - -   Clear
1:00 AM 44.6 °F 39.7 °F 37.4 °F 76% 30.12 in - West 9.2 mph - N/A   Clear
1:30 AM 44.6 °F 40.2 °F 37.4 °F 76% 30.12 in - West 8.1 mph - N/A   Clear
2:00 AM 46.4 °F 42.4 °F 37.4 °F 71% 30.12 in - West 8.1 mph - N/A   Clear
2:30 AM 46.4 °F 42.4 °F 37.4 °F 71% 30.09 in - West 8.1 mph - N/A   Clear
3:00 AM 44.6 °F 40.7 °F 37.4 °F 76% 30.09 in - WSW 6.9 mph - N/A   Clear
3:30 AM 44.6 °F 39.7 °F 37.4 °F 76% 30.09 in - WSW 9.2 mph - N/A   Clear
4:00 AM 44.6 °F 40.2 °F 37.4 °F 76% 30.06 in - WSW 8.1 mph - N/A   Clear
4:30 AM 44.6 °F 40.2 °F 39.2 °F 81% 30.06 in - SW 8.1 mph - N/A   Clear
5:00 AM 44.6 °F 40.2 °F 39.2 °F 81% 30.06 in - SW 8.1 mph - N/A   Clear
5:30 AM 44.6 °F 40.2 °F 39.2 °F 81% 30.06 in - WSW 8.1 mph - N/A   Clear
6:00 AM 42.8 °F 37.5 °F 39.2 °F 87% 30.06 in - SW 9.2 mph - N/A   Clear
6:30 AM 44.6 °F 43.1 °F 39.2 °F 81% 30.06 in 6.2 mi SSW 3.5 mph - N/A   Partly Cloudy
7:00 AM 47 °F - 37 °F 58% 30.09 in 9 mi West 9.2 mph - -   Scattered Clouds
7:00 AM 48.2 °F - 39.2 °F 71% 30.06 in 6.2 mi West 9.2 mph - N/A   Partly Cloudy
7:30 AM 48.2 °F - 39.2 °F 71% 30.06 in 6.2 mi West 3.5 mph - N/A   Partly Cloudy
8:00 AM 46.4 °F 42.9 °F 39.2 °F 76% 30.06 in 6.2 mi SW 6.9 mph - N/A   Partly Cloudy
8:30 AM 44.6 °F 40.7 °F 39.2 °F 81% 30.06 in 6.2 mi SW 6.9 mph - N/A   Partly Cloudy
9:00 AM 46.4 °F 42.4 °F 39.2 °F 76% 30.09 in 6.2 mi SW 8.1 mph - N/A   Partly Cloudy
9:30 AM 46.4 °F 41.9 °F 39.2 °F 76% 30.09 in 6.2 mi SW 9.2 mph - N/A   Partly Cloudy
10:00 AM 53.6 °F - 42.8 °F 67% 30.09 in 6.2 mi West 13.8 mph - N/A   Overcast
10:30 AM 55.4 °F - 42.8 °F 63% 30.09 in 6.2 mi West 16.1 mph 27.6 mph N/A   Partly Cloudy
11:00 AM 55.4 °F - 42.8 °F 63% 30.09 in 6.2 mi West 13.8 mph - N/A   Partly Cloudy
11:30 AM 57.2 °F - 42.8 °F 59% 30.09 in 6.2 mi West 16.1 mph - N/A   Partly Cloudy
12:00 PM 59.0 °F - 42.8 °F 55% 30.09 in 6.2 mi WNW 17.3 mph - N/A   Partly Cloudy
12:30 PM 60.8 °F - 42.8 °F 52% 30.06 in 6.2 mi WNW 13.8 mph - N/A   Partly Cloudy
1:00 PM 61 °F - 39 °F 33% 30.07 in 19 mi WNW 17.3 mph - -   Scattered Clouds
1:00 PM 60.8 °F - 42.8 °F 52% 30.06 in 6.2 mi WNW 16.1 mph - N/A   Partly Cloudy
1:30 PM 62.6 °F - 41.0 °F 45% 30.04 in 6.2 mi WNW 16.1 mph - N/A   Partly Cloudy
2:00 PM 62.6 °F - 41.0 °F 45% 30.04 in 6.2 mi WNW 16.1 mph - N/A   Partly Cloudy
2:30 PM 62.6 °F - 41.0 °F 45% 30.04 in 6.2 mi WNW 15.0 mph - N/A   Partly Cloudy
3:00 PM 62.6 °F - 41.0 °F 45% 30.04 in 6.2 mi WNW 18.4 mph - N/A   Partly Cloudy
3:30 PM 62.6 °F - 41.0 °F 45% 30.04 in 6.2 mi WNW 15.0 mph - N/A   Partly Cloudy
4:00 PM 62.6 °F - 39.2 °F 42% 30.06 in 6.2 mi WNW 15.0 mph - N/A   Partly Cloudy
4:30 PM 62.6 °F - 41.0 °F 45% 30.06 in 6.2 mi WNW 16.1 mph - N/A   Partly Cloudy
5:00 PM 60.8 °F - 41.0 °F 48% 30.06 in 6.2 mi WNW 16.1 mph - N/A   Scattered Clouds
5:30 PM 59.0 °F - 41.0 °F 51% 30.06 in 6.2 mi WNW 17.3 mph - N/A   Partly Cloudy
6:00 PM 57.2 °F - 39.2 °F 51% 30.09 in 6.2 mi WNW 15.0 mph - N/A   Partly Cloudy
6:30 PM 55.4 °F - 41.0 °F 58% 30.09 in 6.2 mi WNW 12.7 mph - N/A   Partly Cloudy
7:00 PM 55 °F - 37 °F 40% 30.13 in 12 mi WNW 13.8 mph - -   Scattered Clouds
7:00 PM 55.4 °F - 41.0 °F 58% 30.12 in 6.2 mi WNW 13.8 mph - N/A   Partly Cloudy
7:30 PM 55.4 °F - 41.0 °F 58% 30.12 in 6.2 mi WNW 12.7 mph - N/A   Partly Cloudy
8:00 PM 55.4 °F - 41.0 °F 58% 30.12 in - WNW 15.0 mph - N/A   Clear
8:30 PM 53.6 °F - 41.0 °F 62% 30.15 in - WNW 11.5 mph - N/A   Clear
9:00 PM 53.6 °F - 39.2 °F 58% 30.12 in - WNW 13.8 mph - N/A   Clear
9:30 PM 53.6 °F - 39.2 °F 58% 30.12 in - WNW 16.1 mph - N/A   Clear
10:00 PM 53.6 °F - 39.2 °F 58% 30.15 in 6.2 mi WNW 11.5 mph - N/A   Partly Cloudy
10:30 PM 53.6 °F - 39.2 °F 58% 30.15 in 6.2 mi WNW 10.4 mph - N/A   Partly Cloudy
11:00 PM 53.6 °F - 39.2 °F 58% 30.15 in 6.2 mi WNW 11.5 mph - N/A   Partly Cloudy
11:30 PM 53.6 °F - 39.2 °F 58% 30.15 in 6.2 mi WNW 13.8 mph - N/A   Partly Cloudy